This is the latest recevied weather packets stored in our database for station/object KO5MO-10. If no packets are shown the sender has not sent any weather packets the latest 1 day(s).
| Time | Temp. | Humidity | Pressure | Rain* | Wind** | Luminosity | Snow |
|---|---|---|---|---|---|---|---|
| 1777862475 | 28.89° C | 16% | 1003.5 hPa | - | - | - | - |
| 1777861575 | 29.44° C | 15% | 1003 hPa | - | - | - | - |
| 1777860674 | 30° C | 16% | 1002.8 hPa | - | - | - | - |
| 1777859774 | 30° C | 18% | 1002.7 hPa | - | - | - | - |
| 1777858874 | 31.11° C | 17% | 1002.5 hPa | - | - | - | - |
| 1777857974 | 31.67° C | 16% | 1002.4 hPa | - | - | - | - |
| 1777857074 | 33.33° C | 14% | 1002.4 hPa | - | - | - | - |
| 1777856174 | 34.44° C | 14% | 1002.5 hPa | - | - | - | - |
| 1777855273 | 35° C | 13% | 1002.5 hPa | - | - | - | - |
| 1777854373 | 35° C | 13% | 1002.4 hPa | - | - | - | - |
| 1777853473 | 35.56° C | 13% | 1002.2 hPa | - | - | - | - |
| 1777852573 | 36.11° C | 12% | 1002.3 hPa | - | - | - | - |
| 1777851673 | 37.22° C | 14% | 1002.2 hPa | - | - | - | - |
| 1777850772 | 37.22° C | 11% | 1002.2 hPa | - | - | - | - |
| 1777849872 | 38.33° C | 11% | 1002.4 hPa | - | - | - | - |
| 1777848972 | 38.33° C | 11% | 1002.6 hPa | - | - | - | - |
| 1777848072 | 39.44° C | 12% | 1002.9 hPa | - | - | - | - |
| 1777847172 | 38.89° C | 11% | 1003 hPa | - | - | - | - |
| 1777846271 | 38.89° C | 12% | 1003.2 hPa | - | - | - | - |
| 1777845371 | 39.44° C | 12% | 1003.6 hPa | - | - | - | - |
| 1777844471 | 38.33° C | 12% | 1003.8 hPa | - | - | - | - |
| 1777843571 | 38.33° C | 12% | 1004 hPa | - | - | - | - |
| 1777842671 | 38.33° C | 12% | 1004.4 hPa | - | - | - | - |
| 1777841771 | 38.33° C | 13% | 1004.6 hPa | - | - | - | - |
| 1777840870 | 37.78° C | 13% | 1005 hPa | - | - | - | - |
* Rain since midnight (hover to see other rain measurements)
** Current wind speed in m/s (hover to see current wind gust speed)